Regional Weather Roundup
Issued by NWS Jackson, KY

Home | Current Version | Previous Version | Graphics & Text | Print | Product List | Glossary On
Versions: 1 2 3 4 5 6 7 8 9 10 11 12 13 14 15 16 17 18 19 20 21 22 23 24 25 26 27 28 29 30 31 32 33 34 35 36 37 38 39 40 41 42 43 44 45 46 47 48 49 50
000
ASUS43 KJKL 021210
RWRJKL

EAST KENTUCKY HOURLY WEATHER ROUNDUP
NATIONAL WEATHER SERVICE JACKSON KY
800 AM EDT WED SEP 02 2015

NOTE: "FAIR" INDICATES FEW OR NO CLOUDS BELOW 12,000 FEET WITH
NO SIGNIFICANT WEATHER AND/OR OBSTRUCTIONS TO VISIBILITY.

* THESE REPORTS ARE NOT UNDER NWS QUALITY CONTROL AND MAY NOT
  REPORT WEATHER SUCH AS PRECIPITATION AND FOG.

KYZ079-080-083-085-087-088-110-112-115-119-120-021300
...EASTERN KENTUCKY...

CITY           SKY/WX    TMP DP  RH WIND       PRES   REMARKS
JACKSON        SUNNY     68  66  93 CALM      30.18R FOG
6HR MIN TEMP:  67; 6HR MAX TEMP:  73;

LONDON         CLEAR     67  62  84 CALM      30.17R HAZE
6HR MIN TEMP:  66; 6HR MAX TEMP:  69;

SOMERSET*      CLOUDY    63  63 100 CALM      30.17R FOG
MONTICELLO*    CLEAR     64  64 100 CALM      30.19R FOG
6HR MIN TEMP:  62; 6HR MAX TEMP:  65;

WILLIAMSBURG*  CLOUDY    63  63 100 CALM      30.18R
MIDDLESBORO*   FOG       66  66 100 CALM      30.19R VSB 1
6HR MIN TEMP:  65; 6HR MAX TEMP:  66;

HAZARD APT*    FOG       66  66 100 CALM      30.18R VSB 0
BLACK MTN*       N/A     64  63  94 CALM        N/A
BIG SANDY*     SUNNY     67  67  99 CALM      30.17R FOG
6HR MIN TEMP:  67; 6HR MAX TEMP:  70;

MOREHEAD APT*  SUNNY     66  66 100 CALM      30.18R FOG
$$

KYZ035-036-041-042-044-050-067-078-099-021300
...CENTRAL KENTUCKY...

CITY           SKY/WX    TMP DP  RH WIND       PRES   REMARKS
MT STERLING*   CLEAR     64  64 100 CALM      30.18R FOG
DANVILLE*      CLEAR     63  63 100 CALM      30.18R
RICHMOND*      CLEAR     63  61  94 CALM      30.16R
LEXINGTON      CLEAR     67  64  90 CALM      30.16R
6HR MIN TEMP:  65; 6HR MAX TEMP:  70;

FRANKFORT      CLEAR     66  64  93 CALM      30.14R
6HR MIN TEMP:  64; 6HR MAX TEMP:  69;

$$

KYZ091>093-OHZ055-061-077-WVZ005-015-034-035-042-021300
...SOUTHERN OHIO/WEST VIRGINIA...

CITY           SKY/WX    TMP DP  RH WIND       PRES   REMARKS
COVINGTON      CLEAR     66  65  96 S3        30.14R FOG
COLUMBUS       MOSUNNY   69  67  93 SE3       30.12R
DAYTON         PTCLDY    69  67  93 SW5       30.15R
WILMINGTON     CLEAR     68  64  87 CALM      30.15R FOG
HUNTINGTON     SUNNY     65  65 100 CALM      30.14R FOG
CHARLESTON     MOSUNNY   66  65  96 CALM      30.14R FOG
PINEVILLE*     FOG       66  66 100 MISG      30.25R VSB 1/2
BECKLEY        SUNNY     65  61  87 CALM      30.23R FOG
BLUEFIELD      SUNNY     69  62  78 W3        30.25R
$$

VAZ002-007-008-TNZ017-027-036-066-071-021300
...SOUTHWEST VIRGINIA/EAST TENNESSEE...

CITY           SKY/WX    TMP DP  RH WIND       PRES   REMARKS
WISE*          SUNNY     68  64  88 CALM      30.25R
JONESVILLE*    SUNNY     64  63  94 CALM      30.21R FOG
ABINGDON*      SUNNY     67  65  91 CALM      30.21R
BRISTOL        MOSUNNY   66  64  93 CALM      30.19R
KNOXVILLE      CLOUDY    69  69 100 CALM      30.14R
OAK RIDGE      MOCLDY    69  66  90 CALM      30.16R
CROSSVILLE     MOCLDY    66  63  90 CALM      30.20R FOG
NASHVILLE      CLOUDY    71  67  87 CALM      30.14R
$$

...KEY TO REMARKS...
VSB - VISIBILITY IN MILES
WCI - WIND CHILL INDEX
HX  - HEAT INDEX

$$


USA.gov is the U.S. government's official web portal to all federal, state and local government web resources and services.